Regional Weather Roundup
Issued by NWS

Home | Current Version | Previous Version | Text Only | Print | Product List | Glossary On
Versions: 1 2 3 4 5 6 7 8 9 10 11 12 13 14 15 16 17 18 19 20 21 22 23 24 25 26 27 28 29 30 31 32 33 34 35 36 37 38 39 40 41 42 43 44 45 46 47 48 49 50
000
ASUS43 KTOP 262208
RWRKS

WEATHER ROUNDUP FOR KANSAS
NATIONAL WEATHER SERVICE GOODLAND KS
500 PM CDT TUE SEP 26 2017

NOTE:  "FAIR" INDICATES FEW OR NO CLOUDS BELOW 12,000 FEET WITH NO
SIGNIFICANT WEATHER AND/OR OBSTRUCTIONS TO VISIBILITY.

KSZ001>006-013>018-027>032-041>047-262300-
NORTHWEST KANSAS

CITY           SKY/WX    TMP DP  RH WIND       PRES   REMARKS
GOODLAND       SUNNY     63  47  55 E7        30.15F
HAYS           MOSUNNY   60  50  69 NE9       30.14F
HILL CITY      MOSUNNY   61  50  67 NE7       30.15F
RUSSELL        MOSUNNY   62  50  64 N12       30.13F
$$

KSZ061>065-074>080-084>089-262300-
SOUTHWEST KANSAS

CITY           SKY/WX    TMP DP  RH WIND       PRES   REMARKS
DODGE CITY     PTSUNNY   60  50  69 NE8       30.13F
ELKHART          N/A     58  52  81 NE7         N/A
GARDEN CITY    CLOUDY    58  48  69 NE8       30.15S
GREAT BEND     CLOUDY    58  51  78 NE10      30.14S
LIBERAL        CLOUDY    59  51  75 N10       30.14F
PRATT          CLOUDY    58  51  76 N12       30.13R
$$

KSZ066>073-081>083-090>101-262300-
SOUTHEAST KANSAS

CITY           SKY/WX    TMP DP  RH WIND       PRES   REMARKS
CHANUTE        CLOUDY    67  64  90 N9        30.06F
COFFEYVILLE    LGT RAIN  68  66  93 N10       30.03R
HUTCHINSON     CLOUDY    60  55  83 N8        30.11F
MEDICINE LODGE   N/A     60  53  77 N12       30.10F
NEWTON         LGT RAIN  58  55  90 N10       30.12R
PARSONS        LGT RAIN  67  65  93 N6        30.05S
WICHITA INTL   LGT RAIN  59  58  96 NW10      30.11R
WICHITA JABRA  CLOUDY    58  58 100 N12       30.09S
WICHITA MCCONL DRIZZLE   59  56  90 NE9       30.09S
WINFIELD       LGT RAIN  62  61  96 N14       30.09R
$$

KSZ007>012-019>026-033>040-048>060-102>105-262300-
NORTHEAST KANSAS

CITY           SKY/WX    TMP DP  RH WIND       PRES   REMARKS
CONCORDIA      CLOUDY    62  54  74 N8        30.13S
EMPORIA        CLOUDY    62  55  77 N8        30.09S
LAWRENCE       CLOUDY    65  58  78 N8        30.08F
MANHATTAN      CLOUDY    62  54  74 N7        30.11F
MARYSVILLE     PTSUNNY   64  54  68 N5        30.12S
OLATHE IND     CLOUDY    65  59  81 N12       30.07F
OLATHE EXE     CLOUDY    65  61  87 N10       30.07S
SALINA         CLOUDY    64  53  67 NW10      30.13S
TOPEKA BILLARD CLOUDY    64  58  80 N8        30.08F
TOPEKA FORBES  CLOUDY    65  58  78 N7        30.08F
$$




USA.gov is the U.S. government's official web portal to all federal, state and local government web resources and services.